Погода в Вильяррике

Парагвай     25°47′10″S   56°27′38″W
темп.,
°C
ветер,
м/с
пор.,
м/с
влажн.,
%
обл.,
%
осадки,
мм/ч
давл.,
гПа
погр.,
м
1 марта, пн
пн100:00+23ююв22690 0.0 100937
03:00+22вюв12780 0.0 100852
06:00+21юв11850 0.0 100931
09:00+25св25700 0.0 1010421
12:00+33св22440 0.0 10091405
15:00+31в345528 0.1 1006640
18:00+32вюв235121 0.0 10051327
21:00+26всв276914 0.0 1007168
2 марта, вт
вт200:00+24св27790 0.0 1008182
03:00+23св29810 0.0 1008316
06:00+22св13910 0.0 100998
09:00+27ссв36710 0.0 1011546
12:00+30ссв34633 0.9 10101195
15:00+35ссз224114 1.7 10071942
18:00+32юв125365 0.0 1006160
21:00+27в236645 0.0 100885
3 марта, ср
ср300:00+24всв258035 0.5 1010152
03:00+23всв248718 0.5 1010123
06:00+22св26930 0.0 1011193
09:00+26св36789 0.2 1012407
12:00+34с34450 0.0 10111605
15:00+36св223814 0.0 10082168
18:00+31ссв255595 0.0 1006173
21:00+23ю369673 4.5 1009131
4 марта, чт
чт400:00+23всв41194100 4.9 1011362
03:00+21всв2896100 5.1 1010281
06:00+22св3996100 0.0 1010335
09:00+25ссв3783100 0.0 1011512
12:00+31с3558100 0.3 10101305
15:00+29ссз347999 5.9 1007583
18:00+25зсз2493100 5.8 100696
21:00+22ююв2599100 7.5 1008225
5 марта, пт
пт500:00+21ю259999 0.0 1008201
03:00+21ююз1210099 2.3 1006104
06:00+21св0099100 1.9 100527
09:00+22зюз1397100 4.6 1007241
12:00+27зюз246890 0.1 1007880
15:00+27юз248652 4.6 1004678
18:00+25ю25939 4.9 1003332
21:00+22ю279812 7.3 1005223